FW5165 Weather Reports


Display with metric or nautical units.
time (UTC)temp
F
wind
direction
speed
MPH
gust
MPH
rain 1hr
in
rain 24hr
in
rain mn
in
humidity
%
barometer
mb
20260906083529 64 94 3.0 7.0 0.00 0.00 0.00 62 1015.0
20260906083028 65 90 3.0 7.0 0.00 0.00 0.00 62 1015.0
20260906082527 65 102 2.0 5.0 0.00 0.00 0.00 62 1015.0
20260906082027 65 88 2.0 4.0 0.00 0.00 0.00 61 1015.0
20260906081526 65 101 2.0 4.0 0.00 0.00 0.00 61 1015.0
20260906081025 65 105 1.0 3.0 0.00 0.00 0.00 60 1015.0
20260906080525 65 108 1.0 4.0 0.00 0.00 0.00 60 1015.1
20260906080023 66 110 1.0 3.0 0.00 0.00 0.00 60 1015.0
20260906075524 66 360 1.0 2.0 0.00 0.00 0.00 59 1015.1
20260906075022 66 360 1.0 4.0 0.00 0.00 0.00 59 1015.1
20260906074521 66 123 1.0 4.0 0.00 0.00 0.00 58 1015.1
20260906074022 66 124 1.0 2.0 0.00 0.00 0.00 58 1015.3
20260906073521 66 124 1.0 2.0 0.00 0.00 0.00 58 1015.3
20260906073020 66 124 1.0 3.0 0.00 0.00 0.00 58 1015.3
20260906072519 66 124 1.0 4.0 0.00 0.00 0.00 58 1015.3
20260906072018 66 125 1.0 4.0 0.00 0.00 0.00 58 1015.3
20260906071518 66 125 1.0 3.0 0.00 0.00 0.00 57 1015.3
20260906071017 66 125 1.0 5.0 0.00 0.00 0.00 57 1015.4
20260906070518 67 151 2.0 3.0 0.00 0.00 0.00 56 1015.4
20260906070115 67 151 1.0 3.0 0.00 0.00 0.00 56 1015.4
20260906065517 67 152 1.0 2.0 0.00 0.00 0.00 55 1015.5
20260906065015 67 152 1.0 2.0 0.00 0.00 0.00 55 1015.5
20260906064514 67 152 1.0 2.0 0.00 0.00 0.00 54 1015.5
20260906064019 68 152 0.0 4.0 0.00 0.00 0.00 54 1015.5
20260906063518 68 152 1.0 4.0 0.00 0.00 0.00 53 1015.5
20260906063015 68 159 1.0 3.0 0.00 0.00 0.00 53 1015.6
20260906062514 68 159 1.0 2.0 0.00 0.00 0.00 53 1015.5
20260906062015 68 161 0.0 2.0 0.00 0.00 0.00 52 1015.6
20260906061514 68 161 0.0 1.0 0.00 0.00 0.00 52 1015.6
20260906061013 69 360 0.0 4.0 0.00 0.00 0.00 52 1015.6
20260906060514 69 161 1.0 5.0 0.00 0.00 0.00 51 1015.6
20260906060022 69 162 4.0 7.0 0.00 0.00 0.00 51 1015.5
20260906055512 69 172 5.0 7.0 0.00 0.00 0.00 50 1015.6
20260906055013 70 156 2.0 6.0 0.00 0.00 0.00 50 1015.4
20260906054517 70 153 1.0 3.0 0.00 0.00 0.00 49 1015.4
20260906054012 70 153 1.0 4.0 0.00 0.00 0.00 49 1015.4
20260906053512 70 153 0.0 5.0 0.00 0.00 0.00 48 1015.4
20260906053012 70 153 2.0 5.0 0.00 0.00 0.00 49 1015.4
20260906052512 70 153 2.0 5.0 0.00 0.00 0.00 49 1015.3
20260906052014 71 154 2.0 4.0 0.00 0.00 0.00 48 1015.3
20260906051511 71 155 0.0 4.0 0.00 0.00 0.00 47 1015.3
20260906051012 71 155 0.0 4.0 0.00 0.00 0.00 46 1015.2
20260906050511 71 156 0.0 8.0 0.00 0.00 0.00 46 1015.1
20260906050011 72 164 4.0 8.0 0.00 0.00 0.00 46 1015.2
20260906045511 72 146 2.0 6.0 0.00 0.00 0.00 46 1015.1
20260906045010 72 153 2.0 7.0 0.00 0.00 0.00 46 1015.1
20260906044512 72 167 1.0 6.0 0.00 0.00 0.00 45 1015.1
20260906044011 72 156 1.0 6.0 0.00 0.00 0.00 45 1015.1
20260906043510 72 167 1.0 4.0 0.00 0.00 0.00 45 1015.0
20260906043016 72 137 1.0 3.0 0.00 0.00 0.00 45 1015.0
20260906042609 72 136 1.0 3.0 0.00 0.00 0.00 46 1014.9
20260906042009 72 133 1.0 5.0 0.00 0.00 0.00 45 1014.9
20260906041509 73 105 2.0 5.0 0.00 0.00 0.00 45 1014.9
20260906041009 73 137 2.0 5.0 0.00 0.00 0.00 44 1014.8
20260906040509 73 164 2.0 5.0 0.00 0.00 0.00 44 1014.8
20260906040017 73 141 1.0 5.0 0.00 0.00 0.00 44 1014.8
20260906035508 73 152 2.0 6.0 0.00 0.00 0.00 44 1014.7
20260906035008 73 146 2.0 6.0 0.00 0.00 0.00 44 1014.7
20260906034513 74 142 2.0 6.0 0.00 0.00 0.00 45 1014.6
20260906034008 74 144 2.0 6.0 0.00 0.00 0.00 45 1014.6
20260906033506 74 155 3.0 6.0 0.00 0.00 0.00 45 1014.4
20260906033021 74 140 4.0 6.0 0.00 0.00 0.00 44 1014.4
20260906032505 74 155 4.0 6.0 0.00 0.00 0.00 45 1014.4
20260906032007 74 148 4.0 6.0 0.00 0.00 0.00 45 1014.4
20260906031509 74 150 2.0 6.0 0.00 0.00 0.00 45 1014.3
20260906031007 74 205 1.0 4.0 0.00 0.00 0.00 45 1014.3
20260906030506 74 234 1.0 4.0 0.00 0.00 0.00 45 1014.2
20260906030005 75 253 1.0 4.0 0.00 0.00 0.00 45 1014.3
20260906025504 75 256 1.0 2.0 0.00 0.00 0.00 44 1014.2
20260906025004 75 257 0.0 2.0 0.00 0.00 0.00 43 1014.2
20260906024504 76 360 0.0 2.0 0.00 0.00 0.00 42 1014.2
20260906024004 76 257 0.0 4.0 0.00 0.00 0.00 42 1014.3
20260906023504 76 257 1.0 3.0 0.00 0.00 0.00 41 1014.3
20260906023004 77 258 1.0 2.0 0.00 0.00 0.00 42 1014.3
20260906022504 77 227 0.0 4.0 0.00 0.00 0.00 42 1014.3
20260906022003 77 189 0.0 5.0 0.00 0.00 0.00 42 1014.3
20260906021505 77 211 2.0 6.0 0.00 0.00 0.00 41 1014.3
20260906021003 77 212 4.0 6.0 0.00 0.00 0.00 40 1014.3
20260906020503 78 215 3.0 5.0 0.00 0.00 0.00 40 1014.3
20260906020002 78 205 1.0 7.0 0.00 0.00 0.00 42 1014.3
20260906015503 78 190 5.0 7.0 0.00 0.00 0.00 41 1014.3
20260906015002 78 171 2.0 7.0 0.00 0.00 0.00 41 1014.3
20260906014502 79 217 3.0 7.0 0.00 0.00 0.00 40 1014.3
20260906014000 79 221 4.0 7.0 0.00 0.00 0.00 39 1014.3
20260906013700 79 203 5.0 7.0 0.00 0.00 0.00 39 1014.3
20260906013109 79 148 1.0 7.0 0.00 0.00 0.00 39 1014.4
20260906012559 79 172 4.0 10.0 0.00 0.00 0.00 39 1014.5
20260906012058 79 148 4.0 10.0 0.00 0.00 0.00 38 1014.5
20260906011559 79 153 4.0 8.0 0.00 0.00 0.00 39 1014.6
20260906011059 79 205 5.0 9.0 0.00 0.00 0.00 38 1014.6
20260906010558 79 226 5.0 9.0 0.00 0.00 0.00 38 1014.6
20260906010057 79 285 4.0 9.0 0.00 0.00 0.00 38 1014.5
20260906005557 79 219 4.0 9.0 0.00 0.00 0.00 38 1014.6
20260906005100 79 221 5.0 11.0 0.00 0.00 0.00 38 1014.6
20260906004557 79 209 5.0 11.0 0.00 0.00 0.00 38 1014.6
20260906004056 79 186 5.0 10.0 0.00 0.00 0.00 37 1014.7
20260906003556 79 216 6.0 10.0 0.00 0.00 0.00 37 1014.7
20260906003057 79 206 3.0 7.0 0.00 0.00 0.00 39 1014.6
20260906002559 78 213 5.0 7.0 0.00 0.00 0.00 37 1014.7
20260906002055 79 269 4.0 10.0 0.00 0.00 0.00 38 1014.6
20260906001604 79 215 6.0 10.0 0.00 0.00 0.00 38 1014.7
20260906001057 79 265 5.0 13.0 0.00 0.00 0.00 38 1014.7
20260906000559 78 238 5.0 13.0 0.00 0.00 0.00 39 1014.8
20260906000054 78 170 6.0 13.0 0.00 0.00 0.00 38 1014.7
20260905235556 78 176 9.0 13.0 0.00 0.00 0.00 38 1014.7
20260905235053 79 211 4.0 10.0 0.00 0.00 0.00 40 1014.7
20260905234553 79 269 5.0 11.0 0.00 0.00 0.00 39 1014.7
20260905234052 79 236 7.0 11.0 0.00 0.00 0.00 40 1014.8
20260905233552 80 276 8.0 11.0 0.00 0.00 0.00 37 1014.7
20260905233059 79 242 6.0 10.0 0.00 0.00 0.00 38 1014.7
20260905232552 79 231 7.0 10.0 0.00 0.00 0.00 39 1014.7
20260905232051 80 190 4.0 9.0 0.00 0.00 0.00 38 1014.6
20260905231551 80 185 4.0 8.0 0.00 0.00 0.00 39 1014.6
20260905231049 79 222 5.0 10.0 0.00 0.00 0.00 40 1014.7
20260905230548 79 230 5.0 10.0 0.00 0.00 0.00 41 1014.7
20260905230050 78 176 5.0 8.0 0.00 0.00 0.00 40 1014.7
20260905225547 78 159 4.0 10.0 0.00 0.00 0.00 40 1014.9
20260905225046 78 190 8.0 10.0 0.00 0.00 0.00 40 1015.0
20260905224610 79 155 2.0 11.0 0.00 0.00 0.00 39 1015.0
20260905224046 78 184 6.0 11.0 0.00 0.00 0.00 39 1014.9
20260905223548 78 142 5.0 9.0 0.00 0.00 0.00 40 1014.9
20260905223047 78 158 4.0 9.0 0.00 0.00 0.00 39 1015.0
20260905222546 78 189 4.0 10.0 0.00 0.00 0.00 39 1014.9
20260905222049 79 216 3.0 10.0 0.00 0.00 0.00 38 1015.0
20260905221544 78 231 5.0 11.0 0.00 0.00 0.00 38 1015.1
20260905221045 78 136 4.0 11.0 0.00 0.00 0.00 38 1015.2
20260905220543 78 188 5.0 11.0 0.00 0.00 0.00 39 1015.1
20260905220043 78 202 6.0 11.0 0.00 0.00 0.00 38 1015.2
20260905215543 79 189 4.0 9.0 0.00 0.00 0.00 37 1015.3
20260905215041 78 221 4.0 8.0 0.00 0.00 0.00 38 1015.4
20260905214547 78 213 5.0 10.0 0.00 0.00 0.00 38 1015.4
20260905214041 77 198 4.0 12.0 0.00 0.00 0.00 40 1015.5
20260905213541 78 157 7.0 12.0 0.00 0.00 0.00 38 1015.5
20260905213042 78 215 7.0 10.0 0.00 0.00 0.00 39 1015.5
20260905212542 78 141 5.0 10.0 0.00 0.00 0.00 37 1015.6
20260905212041 78 158 5.0 10.0 0.00 0.00 0.00 37 1015.6
20260905211546 78 171 5.0 12.0 0.00 0.00 0.00 36 1015.6
20260905211038 77 201 4.0 9.0 0.00 0.00 0.00 39 1015.6
20260905210537 76 209 5.0 8.0 0.00 0.00 0.00 40 1015.6
20260905210043 76 273 4.0 10.0 0.00 0.00 0.00 40 1015.6
20260905205536 75 230 4.0 10.0 0.00 0.00 0.00 39 1015.6
20260905205039 75 200 5.0 10.0 0.00 0.00 0.00 41 1015.7
20260905204538 76 190 5.0 11.0 0.00 0.00 0.00 38 1015.6
20260905204038 76 173 4.0 13.0 0.00 0.00 0.00 37 1015.6
20260905203535 76 207 9.0 13.0 0.00 0.00 0.00 37 1015.7
20260905203037 76 176 6.0 10.0 0.00 0.00 0.00 38 1015.7
20260905202533 76 182 5.0 11.0 0.00 0.00 0.00 39 1015.7
20260905202033 75 250 2.0 11.0 0.00 0.00 0.00 40 1015.7
20260905201534 75 159 4.0 10.0 0.00 0.00 0.00 41 1015.8
20260905201032 75 220 6.0 9.0 0.00 0.00 0.00 42 1015.8
20260905200532 75 176 5.0 11.0 0.00 0.00 0.00 43 1015.9
20260905200034 75 203 5.0 10.0 0.00 0.00 0.00 44 1016.0
20260905195531 75 173 6.0 9.0 0.00 0.00 0.00 44 1016.1
20260905195033 75 206 5.0 9.0 0.00 0.00 0.00 45 1016.1
20260905194529 75 227 3.0 6.0 0.00 0.00 0.00 44 1016.1
20260905194028 74 360 1.0 11.0 0.00 0.00 0.00 46 1016.1
20260905193527 73 360 6.0 11.0 0.00 0.00 0.00 46 1016.3
20260905193026 73 360 7.0 11.0 0.00 0.00 0.00 48 1016.3
20260905192525 72 360 3.0 13.0 0.00 0.00 0.00 48 1016.2
20260905192025 72 360 7.0 13.0 0.00 0.00 0.00 49 1016.4
20260905191524 71 360 5.0 13.0 0.00 0.00 0.00 49 1016.3
20260905191026 72 360 7.0 13.0 0.00 0.00 0.00 52 1016.4
20260905190524 72 360 4.0 7.0 0.00 0.00 0.00 53 1016.3
20260905190023 71 271 2.0 9.0 0.00 0.00 0.00 52 1016.3
20260905185520 71 360 6.0 9.0 0.00 0.00 0.00 53 1016.5
20260905185019 71 252 2.0 7.0 0.00 0.00 0.00 54 1016.5
20260905184527 70 360 1.0 12.0 0.00 0.00 0.00 56 1016.4
20260905184018 70 360 9.0 12.0 0.00 0.00 0.00 55 1016.5
20260905183518 70 360 4.0 10.0 0.00 0.00 0.00 55 1016.4
20260905183017 70 360 4.0 9.0 0.00 0.00 0.00 56 1016.5
20260905182515 69 360 6.0 9.0 0.00 0.00 0.00 57 1016.4
20260905182015 69 360 4.0 11.0 0.00 0.00 0.00 57 1016.4
20260905181515 69 273 6.0 11.0 0.00 0.00 0.00 57 1016.4
20260905181013 69 237 4.0 9.0 0.00 0.00 0.00 59 1016.5
20260905180515 68 237 1.0 9.0 0.00 0.00 0.00 58 1016.4
20260905180011 68 180 6.0 9.0 0.00 0.00 0.00 60 1016.4
20260905175510 68 275 4.0 8.0 0.00 0.00 0.00 60 1016.4
20260905175010 68 207 6.0 8.0 0.00 0.00 0.00 61 1016.3
20260905174510 68 236 1.0 8.0 0.00 0.00 0.00 60 1016.3
20260905174009 68 221 4.0 8.0 0.00 0.00 0.00 60 1016.2
20260905173509 68 229 3.0 7.0 0.00 0.00 0.00 60 1016.3
20260905173008 67 270 4.0 6.0 0.00 0.00 0.00 60 1016.3
20260905172508 67 235 2.0 6.0 0.00 0.00 0.00 60 1016.2
20260905172009 67 252 3.0 6.0 0.00 0.00 0.00 62 1016.2
20260905171505 66 191 2.0 7.0 0.00 0.00 0.00 62 1016.2
20260905171004 66 225 4.0 7.0 0.00 0.00 0.00 63 1016.1
20260905170503 66 261 2.0 6.0 0.00 0.00 0.00 63 1016.3
20260905170003 65 254 3.0 7.0 0.00 0.01 0.00 63 1016.3
20260905165501 65 238 1.0 7.0 0.00 0.01 0.00 64 1016.2
20260905165001 65 266 5.0 7.0 0.00 0.01 0.00 65 1016.2
20260905164607 65 219 3.0 6.0 0.00 0.01 0.00 65 1016.1
20260905164100 65 176 0.0 6.0 0.00 0.01 0.00 65 1016.0
20260905163559 64 360 0.0 2.0 0.00 0.01 0.00 65 1016.0
20260905163108 64 360 1.0 2.0 0.00 0.01 0.00 66 1016.0
20260905162557 64 360 0.0 2.0 0.00 0.01 0.00 67 1016.1
20260905162056 63 360 0.0 4.0 0.00 0.01 0.00 68 1016.1
20260905161606 62 360 1.0 4.0 0.00 0.01 0.00 68 1016.1
20260905161056 62 360 0.0 4.0 0.00 0.01 0.00 69 1016.2
20260905160556 61 360 1.0 4.0 0.00 0.01 0.00 69 1016.2
20260905160054 61 360 0.0 2.0 0.00 0.01 0.00 69 1016.3
20260905155554 61 360 0.0 2.0 0.00 0.01 0.00 70 1016.3
20260905155054 60 360 0.0 2.0 0.00 0.01 0.00 72 1016.3
20260905154602 59 360 0.0 2.0 0.00 0.01 0.00 71 1016.4
20260905154055 59 360 0.0 2.0 0.00 0.01 0.00 73 1016.3
20260905153552 59 360 0.0 4.0 0.00 0.01 0.00 74 1016.3
20260905153053 58 310 1.0 4.0 0.00 0.01 0.00 75 1016.4
20260905152552 58 302 0.0 2.0 0.00 0.01 0.00 76 1016.2
20260905152051 57 274 1.0 2.0 0.00 0.01 0.00 76 1016.2
20260905151551 57 360 0.0 1.0 0.00 0.01 0.00 77 1016.1
20260905151051 56 360 0.0 1.0 0.00 0.01 0.00 78 1016.1
20260905150550 56 242 0.0 1.0 0.00 0.01 0.00 79 1016.2
20260905150052 55 202 0.0 1.0 0.00 0.01 0.00 80 1016.2
20260905145550 55 52 0.0 0.0 0.00 0.01 0.00 80 1016.1
20260905145049 55 53 0.0 1.0 0.00 0.01 0.00 80 1016.2
20260905144550 55 55 0.0 1.0 0.00 0.01 0.00 80 1016.1
20260905144048 55 51 0.0 1.0 0.00 0.01 0.00 79 1016.0
20260905143548 55 20 0.0 1.0 0.00 0.01 0.00 79 1016.1
20260905143047 55 306 0.0 2.0 0.00 0.01 0.00 78 1016.0
20260905142548 55 263 0.0 2.0 0.00 0.01 0.00 77 1016.0
20260905142047 56 281 0.0 5.0 0.00 0.01 0.00 76 1016.0
20260905141544 56 281 2.0 7.0 0.00 0.01 0.00 75 1015.9
20260905141042 57 281 4.0 7.0 0.00 0.01 0.00 73 1015.8
20260905140542 59 261 2.0 6.0 0.00 0.01 0.00 70 1015.8
20260905140041 59 28 3.0 6.0 0.00 0.01 0.00 70 1015.6
20260905135541 59 71 2.0 5.0 0.00 0.01 0.00 71 1015.5
20260905135041 58 57 2.0 5.0 0.00 0.01 0.00 71 1015.4
20260905134541 58 54 2.0 5.0 0.00 0.01 0.00 71 1015.5
20260905134041 58 46 2.0 5.0 0.00 0.01 0.00 71 1015.4
20260905133541 58 75 2.0 5.0 0.00 0.01 0.00 71 1015.3
20260905133041 58 59 2.0 5.0 0.00 0.01 0.00 71 1015.3
20260905132540 58 59 2.0 3.0 0.00 0.01 0.00 71 1015.4
20260905132041 59 53 2.0 5.0 0.00 0.01 0.00 71 1015.3
20260905131538 59 49 2.0 5.0 0.00 0.01 0.00 71 1015.3
20260905131039 59 53 2.0 6.0 0.00 0.01 0.00 71 1015.2
20260905130541 59 54 3.0 6.0 0.00 0.01 0.00 71 1015.2
20260905130038 59 57 3.0 6.0 0.00 0.01 0.00 71 1015.2
20260905125540 59 55 2.0 3.0 0.00 0.01 0.00 70 1015.2
20260905125037 59 60 1.0 5.0 0.00 0.01 0.00 70 1015.2
20260905124536 59 59 2.0 5.0 0.00 0.01 0.00 70 1015.3
20260905124036 59 53 2.0 5.0 0.00 0.01 0.00 70 1015.3
20260905123536 59 53 2.0 3.0 0.00 0.01 0.00 71 1015.3
20260905123036 59 50 2.0 5.0 0.00 0.01 0.00 71 1015.3
20260905122537 59 53 3.0 5.0 0.00 0.01 0.00 71 1015.4
20260905122036 59 55 2.0 3.0 0.00 0.01 0.00 72 1015.3
20260905121537 58 51 1.0 3.0 0.00 0.01 0.00 72 1015.4
20260905121038 58 51 1.0 3.0 0.00 0.01 0.00 72 1015.3
20260905120537 58 50 1.0 3.0 0.00 0.01 0.00 72 1015.3
20260905120034 58 69 1.0 4.0 0.00 0.01 0.00 73 1015.4
20260905115533 58 69 1.0 4.0 0.00 0.01 0.00 73 1015.4
20260905115033 58 69 1.0 3.0 0.00 0.01 0.00 73 1015.4
20260905114533 58 67 1.0 4.0 0.00 0.01 0.00 73 1015.4
20260905114033 58 67 0.0 4.0 0.00 0.01 0.00 73 1015.4
20260905113532 58 67 1.0 4.0 0.00 0.01 0.00 73 1015.4
20260905113031 58 66 1.0 4.0 0.00 0.01 0.00 74 1015.5
20260905112532 58 63 1.0 3.0 0.00 0.01 0.00 74 1015.5
20260905112033 58 62 1.0 4.0 0.00 0.01 0.00 74 1015.6
20260905111531 58 51 1.0 4.0 0.00 0.01 0.00 74 1015.6
20260905111031 58 50 1.0 4.0 0.00 0.01 0.00 74 1015.7
20260905110530 58 51 1.0 3.0 0.00 0.01 0.00 75 1015.7
20260905110030 58 50 2.0 5.0 0.00 0.01 0.00 75 1015.6
20260905105529 58 50 3.0 5.0 0.00 0.01 0.00 75 1015.7
20260905105029 58 53 3.0 5.0 0.00 0.01 0.00 74 1015.7
20260905104531 58 59 2.0 5.0 0.00 0.01 0.00 73 1015.7
20260905104028 58 63 3.0 5.0 0.00 0.01 0.00 73 1015.7
20260905103530 59 77 2.0 5.0 0.00 0.01 0.00 73 1015.7
20260905103028 59 80 3.0 4.0 0.00 0.01 0.00 73 1015.8
20260905102528 58 82 0.0 2.0 0.00 0.01 0.00 74 1015.9
20260905102031 58 82 0.0 2.0 0.00 0.01 0.00 74 1015.9
20260905101532 58 82 0.0 2.0 0.00 0.01 0.00 74 1015.9
20260905101031 58 81 0.0 2.0 0.00 0.01 0.00 75 1015.9
20260905100527 58 81 1.0 4.0 0.00 0.01 0.00 75 1016.0
20260905100058 58 81 1.0 4.0 0.00 0.01 0.00 75 1016.0
20260905095526 57 81 0.0 2.0 0.00 0.02 0.00 75 1015.9
20260905095025 57 81 0.0 2.0 0.00 0.02 0.00 75 1016.0
20260905094527 57 81 0.0 1.0 0.00 0.02 0.00 75 1016.0
20260905094024 58 80 0.0 0.0 0.00 0.02 0.00 74 1015.9
20260905093524 58 80 0.0 0.0 0.00 0.02 0.00 74 1016.1
20260905093023 58 80 0.0 0.0 0.00 0.02 0.00 74 1016.0
20260905092526 58 78 0.0 0.0 0.00 0.02 0.00 73 1015.9
20260905092024 58 78 0.0 0.0 0.00 0.02 0.00 73 1016.0
20260905091521 59 78 0.0 0.0 0.00 0.02 0.00 73 1015.8
20260905091019 59 79 0.0 0.0 0.00 0.02 0.00 72 1015.9
20260905090519 59 79 0.0 0.0 0.00 0.02 0.00 72 1015.9
20260905090019 59 79 0.0 0.0 0.00 0.04 0.00 72 1015.9
20260905085522 59 78 0.0 0.0 0.00 0.04 0.00 71 1015.9
20260905085017 59 78 0.0 1.0 0.00 0.04 0.00 70 1015.9
20260905084516 59 78 0.0 1.0 0.00 0.04 0.00 70 1015.9
20260905084015 60 78 0.0 1.0 0.00 0.04 0.00 69 1015.9